This demonstration page uses our WeatherBlox Daily Observations layout. Learn more.

41.55636, -103.73856

Hourly Observations for October 1, 2016

Temp ( °F °C ) Dew Point ( °F °C ) Humidity (%) Winds ( mph kmh ) Pressure ( in mb ) Visibility ( mi km ) Precip ( " mm )
12:53 am 00:53 Clear 52 11.1 46 7.8 80 80 E 9 15 30.04 1017 10 16.0934 0 0
1:53 am 01:53 Clear 51 10.6 46 7.8 83 83 E 7 11 30.02 1017 10 16.0934 0 0
2:53 am 02:53 Clear 50 10 45 7.2 83 83 E 6 9 30.01 1016 10 16.0934 0 0
3:53 am 03:53 Clear 49 9.4 45 7.2 86 86 E 7 11 30 1016 10 16.0934 0 0
4:53 am 04:53 Clear 48 8.9 44 6.7 86 86 E 6 9 29.99 1016 10 16.0934 0 0
5:53 am 05:53 Clear 46 7.8 43 6.1 89 89 Calm 30.01 1016 10 16.0934 0 0
6:53 am 06:53 Sunny 47 8.3 43 6.1 86 86 Calm 30.03 1017 10 16.0934 0 0
7:53 am 07:53 Sunny 50 10 45 7.2 83 83 Calm 30.04 1017 10 16.0934 0 0
8:53 am 08:53 Sunny 53 11.7 46 7.8 77 77 Calm 30.04 1017 10 16.0934 0 0
9:53 am 09:53 Sunny 60 15.6 47 8.3 62 62 Calm 30.01 1016 10 16.0934 0 0
10:53 am 10:53 Sunny 66 18.9 48 8.9 52 52 Calm 29.99 1016 10 16.0934 0 0
11:53 am 11:53 Sunny 72 22.2 48 8.9 43 43 WNW 5 7 29.95 1014 10 16.0934 0 0
12:53 pm 12:53 Sunny 77 25 47 8.3 35 35 SW 5 7 29.92 1013 10 16.0934 0 0
1:53 pm 13:53 Sunny 79 26.1 47 8.3 32 32 SSE 5 7 29.9 1012 10 16.0934 0 0
2:53 pm 14:53 Sunny 81 27.2 45 7.2 28 28 Calm 29.88 1012 10 16.0934 0 0
3:53 pm 15:53 Sunny 82 27.8 45 7.2 27 27 SSE 7 11 29.87 1011 10 16.0934 0 0
4:53 pm 16:53 Sunny 82 27.8 43 6.1 25 25 ESE 3 6 29.86 1011 10 16.0934 0 0
5:53 pm 17:53 Sunny 66 19 48 9 52 52 ESE 9 15 29.97 1015 10 16.0934 0 0
6:53 pm 18:53 Clear 68 20 48 8.9 49 49 ESE 6 9 29.88 1012 10 16.0934 0 0
7:53 pm 19:53 Clear 64 17.8 48 8.9 56 56 SSE 3 6 29.9 1012 10 16.0934 0 0
8:53 pm 20:53 Clear 60 15.6 48 8.9 65 65 ESE 9 15 29.91 1013 10 16.0934 0 0
9:53 pm 21:53 Clear 59 15 48 8.9 67 67 E 8 13 29.92 1013 10 16.0934 0 0
10:53 pm 22:53 Clear 59 15 49 9.4 69 69 ESE 9 15 29.92 1013 10 16.0934 0 0
11:53 pm 23:53 Clear 57 13.9 49 9.4 74 74 E 9 15 29.91 1013 10 16.0934 0 0

Powered by AerisWeather